Year,Month,Day,Hour,Minute,Value (Times are PST for temperature in C)
2015,08,22,00,00,16.20
2015,08,22,00,01,16.20
2015,08,22,00,02,16.20
2015,08,22,00,03,16.20
2015,08,22,00,04,16.20
2015,08,22,00,05,16.20
2015,08,22,00,06,16.20
2015,08,22,00,07,16.20
2015,08,22,00,08,16.20
2015,08,22,00,09,16.20
2015,08,22,00,10,16.20
2015,08,22,00,11,16.20
2015,08,22,00,12,16.20
2015,08,22,00,13,16.10
2015,08,22,00,14,16.10
2015,08,22,00,15,16.10
2015,08,22,00,16,16.10
2015,08,22,00,17,16.10
2015,08,22,00,18,16.10
2015,08,22,00,19,16.10
2015,08,22,00,20,16.10
2015,08,22,00,21,16.10
2015,08,22,00,22,16.10
2015,08,22,00,23,16.00
2015,08,22,00,24,16.00
2015,08,22,00,25,16.00
2015,08,22,00,26,16.00
2015,08,22,00,27,16.00
2015,08,22,00,28,16.00
2015,08,22,00,29,16.00
2015,08,22,00,30,16.00
2015,08,22,00,31,16.00
2015,08,22,00,32,16.00
2015,08,22,00,33,16.00
2015,08,22,00,34,16.00
2015,08,22,00,35,16.00
2015,08,22,00,36,15.90
2015,08,22,00,37,16.00
2015,08,22,00,38,15.90
2015,08,22,00,39,15.90
2015,08,22,00,40,15.90
2015,08,22,00,41,15.90
2015,08,22,00,42,15.90
2015,08,22,00,43,15.90
2015,08,22,00,44,15.90
2015,08,22,00,45,15.80
2015,08,22,00,46,15.80
2015,08,22,00,47,15.80
2015,08,22,00,48,15.80
2015,08,22,00,49,15.80
2015,08,22,00,50,15.70
2015,08,22,00,51,15.70
2015,08,22,00,52,15.70
2015,08,22,00,53,15.70
2015,08,22,00,54,15.70
2015,08,22,00,55,15.60
2015,08,22,00,56,15.60
2015,08,22,00,57,15.60
2015,08,22,00,58,15.60
2015,08,22,00,59,15.50
2015,08,22,01,00,15.50
2015,08,22,01,01,15.50
2015,08,22,01,02,15.50
2015,08,22,01,03,15.40
2015,08,22,01,04,15.40
2015,08,22,01,05,15.40
2015,08,22,01,06,15.40
2015,08,22,01,07,15.40
2015,08,22,01,08,15.30
2015,08,22,01,09,15.30
2015,08,22,01,10,15.30
2015,08,22,01,11,15.30
2015,08,22,01,12,15.30
2015,08,22,01,13,15.30
2015,08,22,01,14,15.20
2015,08,22,01,15,15.20
2015,08,22,01,16,15.20
2015,08,22,01,17,15.20
2015,08,22,01,18,15.20
2015,08,22,01,19,15.20
2015,08,22,01,20,15.20
2015,08,22,01,21,15.10
2015,08,22,01,22,15.10
2015,08,22,01,23,15.10
2015,08,22,01,24,15.10
2015,08,22,01,25,15.10
2015,08,22,01,26,15.10
2015,08,22,01,27,15.00
2015,08,22,01,28,15.00
2015,08,22,01,29,15.00
2015,08,22,01,30,15.00
2015,08,22,01,31,14.90
2015,08,22,01,32,14.90
2015,08,22,01,33,14.90
2015,08,22,01,34,14.90
2015,08,22,01,35,14.90
2015,08,22,01,36,14.90
2015,08,22,01,37,14.90
2015,08,22,01,38,14.90
2015,08,22,01,39,14.90
2015,08,22,01,40,14.90
2015,08,22,01,41,14.90
2015,08,22,01,42,14.90
2015,08,22,01,43,14.80
2015,08,22,01,44,14.80
2015,08,22,01,45,14.80
2015,08,22,01,46,14.80
2015,08,22,01,47,14.80
2015,08,22,01,48,14.80
2015,08,22,01,49,14.80
2015,08,22,01,50,14.80
2015,08,22,01,51,14.80
2015,08,22,01,52,14.80
2015,08,22,01,53,14.70
2015,08,22,01,54,14.70
2015,08,22,01,55,14.70
2015,08,22,01,56,14.70
2015,08,22,01,57,14.70
2015,08,22,01,58,14.70
2015,08,22,01,59,14.70
2015,08,22,02,00,14.70
2015,08,22,02,01,14.70
2015,08,22,02,02,14.70
2015,08,22,02,03,14.70
2015,08,22,02,04,14.70
2015,08,22,02,05,14.70
2015,08,22,02,06,14.70
2015,08,22,02,07,14.70
2015,08,22,02,08,14.70
2015,08,22,02,09,14.70
2015,08,22,02,10,14.70
2015,08,22,02,11,14.70
2015,08,22,02,12,14.70
2015,08,22,02,13,14.70
2015,08,22,02,14,14.70
2015,08,22,02,15,14.70
2015,08,22,02,16,14.70
2015,08,22,02,17,14.70
2015,08,22,02,18,14.70
2015,08,22,02,19,14.60
2015,08,22,02,20,14.60
2015,08,22,02,21,14.60
2015,08,22,02,22,14.60
2015,08,22,02,23,14.60
2015,08,22,02,24,14.60
2015,08,22,02,25,14.60
2015,08,22,02,26,14.50
2015,08,22,02,27,14.50
2015,08,22,02,28,14.50
2015,08,22,02,29,14.50
2015,08,22,02,30,14.40
2015,08,22,02,31,14.40
2015,08,22,02,32,14.40
2015,08,22,02,33,14.30
2015,08,22,02,34,14.30
2015,08,22,02,35,14.20
2015,08,22,02,36,14.20
2015,08,22,02,37,14.20
2015,08,22,02,38,14.10
2015,08,22,02,39,14.10
2015,08,22,02,40,14.10
2015,08,22,02,41,14.00
2015,08,22,02,42,14.00
2015,08,22,02,43,14.00
2015,08,22,02,44,13.90
2015,08,22,02,45,13.90
2015,08,22,02,46,13.90
2015,08,22,02,47,13.90
2015,08,22,02,48,13.90
2015,08,22,02,49,13.90
2015,08,22,02,50,13.90
2015,08,22,02,51,13.90
2015,08,22,02,52,13.80
2015,08,22,02,53,13.80
2015,08,22,02,54,13.80
2015,08,22,02,55,13.80
2015,08,22,02,56,13.80
2015,08,22,02,57,13.80
2015,08,22,02,58,13.80
2015,08,22,02,59,13.80
2015,08,22,03,00,13.80
2015,08,22,03,01,13.90
2015,08,22,03,02,13.90
2015,08,22,03,03,13.90
2015,08,22,03,04,13.90
2015,08,22,03,05,13.90
2015,08,22,03,06,13.90
2015,08,22,03,07,13.90
2015,08,22,03,08,13.90
2015,08,22,03,09,13.90
2015,08,22,03,10,14.00
2015,08,22,03,11,14.00
2015,08,22,03,12,14.00
2015,08,22,03,13,14.00
2015,08,22,03,14,14.00
2015,08,22,03,15,14.00
2015,08,22,03,16,14.10
2015,08,22,03,17,14.10
2015,08,22,03,18,14.10
2015,08,22,03,19,14.10
2015,08,22,03,20,14.10
2015,08,22,03,21,14.10
2015,08,22,03,22,14.10
2015,08,22,03,23,14.20
2015,08,22,03,24,14.20
2015,08,22,03,25,14.20
2015,08,22,03,26,14.20
2015,08,22,03,27,14.20
2015,08,22,03,28,14.20
2015,08,22,03,29,14.20
2015,08,22,03,30,14.20
2015,08,22,03,31,14.20
2015,08,22,03,32,14.20
2015,08,22,03,33,14.20
2015,08,22,03,34,14.20
2015,08,22,03,35,14.20
2015,08,22,03,36,14.20
2015,08,22,03,37,14.20
2015,08,22,03,38,14.20
2015,08,22,03,39,14.20
2015,08,22,03,40,14.10
2015,08,22,03,41,14.10
2015,08,22,03,42,14.10
2015,08,22,03,43,14.10
2015,08,22,03,44,14.10
2015,08,22,03,45,14.10
2015,08,22,03,46,14.10
2015,08,22,03,47,14.10
2015,08,22,03,48,14.10
2015,08,22,03,49,14.10
2015,08,22,03,50,14.10
2015,08,22,03,51,14.10
2015,08,22,03,52,14.10
2015,08,22,03,53,14.10
2015,08,22,03,54,14.00
2015,08,22,03,55,14.00
2015,08,22,03,56,14.00
2015,08,22,03,57,13.90
2015,08,22,03,58,13.90
2015,08,22,03,59,13.90
2015,08,22,04,00,13.90
2015,08,22,04,01,13.90
2015,08,22,04,02,13.90
2015,08,22,04,03,13.90
2015,08,22,04,04,13.90
2015,08,22,04,05,13.80
2015,08,22,04,06,13.80
2015,08,22,04,07,13.80
2015,08,22,04,08,13.80
2015,08,22,04,09,13.80
2015,08,22,04,10,13.80
2015,08,22,04,11,13.80
2015,08,22,04,12,13.70
2015,08,22,04,13,13.70
2015,08,22,04,14,13.70
2015,08,22,04,15,13.70
2015,08,22,04,16,13.70
2015,08,22,04,17,13.60
2015,08,22,04,18,13.60
2015,08,22,04,19,13.60
2015,08,22,04,20,13.60
2015,08,22,04,21,13.60
2015,08,22,04,22,13.60
2015,08,22,04,23,13.60
2015,08,22,04,24,13.60
2015,08,22,04,25,13.60
2015,08,22,04,26,13.60
2015,08,22,04,27,13.60
2015,08,22,04,28,13.60
2015,08,22,04,29,13.60
2015,08,22,04,30,13.50
2015,08,22,04,31,13.50
2015,08,22,04,32,13.50
2015,08,22,04,33,13.50
2015,08,22,04,34,13.50
2015,08,22,04,35,13.50
2015,08,22,04,36,13.40
2015,08,22,04,37,13.40
2015,08,22,04,38,13.40
2015,08,22,04,39,13.40
2015,08,22,04,40,13.40
2015,08,22,04,41,13.40
2015,08,22,04,42,13.40
2015,08,22,04,43,13.40
2015,08,22,04,44,13.40
2015,08,22,04,45,13.40
2015,08,22,04,46,13.40
2015,08,22,04,47,13.40
2015,08,22,04,48,13.40
2015,08,22,04,49,13.40
2015,08,22,04,50,13.40
2015,08,22,04,51,13.30
2015,08,22,04,52,13.30
2015,08,22,04,53,13.30
2015,08,22,04,54,13.30
2015,08,22,04,55,13.30
2015,08,22,04,56,13.30
2015,08,22,04,57,13.30
2015,08,22,04,58,13.30
2015,08,22,04,59,13.30
2015,08,22,05,00,13.20
2015,08,22,05,01,13.20
2015,08,22,05,02,13.20
2015,08,22,05,03,13.20
2015,08,22,05,04,13.20
2015,08,22,05,05,13.20
2015,08,22,05,06,13.20
2015,08,22,05,07,13.20
2015,08,22,05,08,13.20
2015,08,22,05,09,13.20
2015,08,22,05,10,13.20
2015,08,22,05,11,13.20
2015,08,22,05,12,13.20
2015,08,22,05,13,13.20
2015,08,22,05,14,13.20
2015,08,22,05,15,13.20
2015,08,22,05,16,13.20
2015,08,22,05,17,13.20
2015,08,22,05,18,13.20
2015,08,22,05,19,13.20
2015,08,22,05,20,13.10
2015,08,22,05,21,13.10
2015,08,22,05,22,13.10
2015,08,22,05,23,13.10
2015,08,22,05,24,13.10
2015,08,22,05,25,13.10
2015,08,22,05,26,13.10
2015,08,22,05,27,13.10
2015,08,22,05,28,13.00
2015,08,22,05,29,13.00
2015,08,22,05,30,13.00
2015,08,22,05,31,13.00
2015,08,22,05,32,13.00
2015,08,22,05,33,13.00
2015,08,22,05,34,13.10
2015,08,22,05,35,13.10
2015,08,22,05,36,13.10
2015,08,22,05,37,13.00
2015,08,22,05,38,13.00
2015,08,22,05,39,13.00
2015,08,22,05,40,13.00
2015,08,22,05,41,13.00
2015,08,22,05,42,13.00
2015,08,22,05,43,13.00
2015,08,22,05,44,13.00
2015,08,22,05,45,13.00
2015,08,22,05,46,13.10
2015,08,22,05,47,13.10
2015,08,22,05,48,13.10
2015,08,22,05,49,13.10
2015,08,22,05,50,13.10
2015,08,22,05,51,13.10
2015,08,22,05,52,13.10
2015,08,22,05,53,13.10
2015,08,22,05,54,13.00
2015,08,22,05,55,13.00
2015,08,22,05,56,13.00
2015,08,22,05,57,13.00
2015,08,22,05,58,13.00
2015,08,22,05,59,13.00
2015,08,22,06,00,12.90
2015,08,22,06,01,12.90
2015,08,22,06,02,12.90
2015,08,22,06,03,12.90
2015,08,22,06,04,12.90
2015,08,22,06,05,13.00
2015,08,22,06,06,13.00
2015,08,22,06,07,13.00
2015,08,22,06,08,13.00
2015,08,22,06,09,13.00
2015,08,22,06,10,13.00
2015,08,22,06,11,13.00
2015,08,22,06,12,13.00
2015,08,22,06,13,13.00
2015,08,22,06,14,13.10
2015,08,22,06,15,13.10
2015,08,22,06,16,13.10
2015,08,22,06,17,13.00
2015,08,22,06,18,13.00
2015,08,22,06,19,13.00
2015,08,22,06,20,13.00
2015,08,22,06,21,13.00
2015,08,22,06,22,13.00
2015,08,22,06,23,13.00
2015,08,22,06,24,13.00
2015,08,22,06,25,13.00
2015,08,22,06,26,13.00
2015,08,22,06,27,13.10
2015,08,22,06,28,13.10
2015,08,22,06,29,13.10
2015,08,22,06,30,13.10
2015,08,22,06,31,13.10
2015,08,22,06,32,13.10
2015,08,22,06,33,13.10
2015,08,22,06,34,13.10
2015,08,22,06,35,13.10
2015,08,22,06,36,13.10
2015,08,22,06,37,13.20
2015,08,22,06,38,13.20
2015,08,22,06,39,13.20
2015,08,22,06,40,13.20
2015,08,22,06,41,13.20
2015,08,22,06,42,13.20
2015,08,22,06,43,13.20
2015,08,22,06,44,13.20
2015,08,22,06,45,13.20
2015,08,22,06,46,13.20
2015,08,22,06,47,13.20
2015,08,22,06,48,13.20
2015,08,22,06,49,13.20
2015,08,22,06,50,13.20
2015,08,22,06,51,13.20
2015,08,22,06,52,13.20
2015,08,22,06,53,13.30
2015,08,22,06,54,13.30
2015,08,22,06,55,13.30
2015,08,22,06,56,13.30
2015,08,22,06,57,13.30
2015,08,22,06,58,13.30
2015,08,22,06,59,13.30
2015,08,22,07,00,13.40
2015,08,22,07,01,13.40
2015,08,22,07,02,13.40
2015,08,22,07,03,13.40
2015,08,22,07,04,13.40
2015,08,22,07,05,13.40
2015,08,22,07,06,13.40
2015,08,22,07,07,13.40
2015,08,22,07,08,13.40
2015,08,22,07,09,13.40
2015,08,22,07,10,13.40
2015,08,22,07,11,13.40
2015,08,22,07,12,13.50
2015,08,22,07,13,13.50
2015,08,22,07,14,13.50
2015,08,22,07,15,13.60
2015,08,22,07,16,13.60
2015,08,22,07,17,13.60
2015,08,22,07,18,13.60
2015,08,22,07,19,13.70
2015,08,22,07,20,13.70
2015,08,22,07,21,13.70
2015,08,22,07,22,13.70
2015,08,22,07,23,13.70
2015,08,22,07,24,13.80
2015,08,22,07,25,13.80
2015,08,22,07,26,13.80
2015,08,22,07,27,13.80
2015,08,22,07,28,13.90
2015,08,22,07,29,13.90
2015,08,22,07,30,14.00
2015,08,22,07,31,14.00
2015,08,22,07,32,14.10
2015,08,22,07,33,14.10
2015,08,22,07,34,14.20
2015,08,22,07,35,14.30
2015,08,22,07,36,14.30
2015,08,22,07,37,14.40
2015,08,22,07,38,14.50
2015,08,22,07,39,14.60
2015,08,22,07,40,14.70
2015,08,22,07,41,14.80
2015,08,22,07,42,14.90
2015,08,22,07,43,15.00
2015,08,22,07,44,15.10
2015,08,22,07,45,15.20
2015,08,22,07,46,15.20
2015,08,22,07,47,15.30
2015,08,22,07,48,15.40
2015,08,22,07,49,15.50
2015,08,22,07,50,15.50
2015,08,22,07,51,15.60
2015,08,22,07,52,15.60
2015,08,22,07,53,15.70
2015,08,22,07,54,15.70
2015,08,22,07,55,15.80
2015,08,22,07,56,15.80
2015,08,22,07,57,15.80
2015,08,22,07,58,15.90
2015,08,22,07,59,15.90
2015,08,22,08,00,15.90
2015,08,22,08,01,16.00
2015,08,22,08,02,16.00
2015,08,22,08,03,16.10
2015,08,22,08,04,16.10
2015,08,22,08,05,16.20
2015,08,22,08,06,16.20
2015,08,22,08,07,16.20
2015,08,22,08,08,16.20
2015,08,22,08,09,16.30
2015,08,22,08,10,16.20
2015,08,22,08,11,16.20
2015,08,22,08,12,16.20
2015,08,22,08,13,16.20
2015,08,22,08,14,16.30
2015,08,22,08,15,16.30
2015,08,22,08,16,16.30
2015,08,22,08,17,16.40
2015,08,22,08,18,16.40
2015,08,22,08,19,16.50
2015,08,22,08,20,16.50
2015,08,22,08,21,16.60
2015,08,22,08,22,16.60
2015,08,22,08,23,16.60
2015,08,22,08,24,16.60
2015,08,22,08,25,16.60
2015,08,22,08,26,16.60
2015,08,22,08,27,16.60
2015,08,22,08,28,16.70
2015,08,22,08,29,16.70
2015,08,22,08,30,16.70
2015,08,22,08,31,16.80
2015,08,22,08,32,16.80
2015,08,22,08,33,16.90
2015,08,22,08,34,16.90
2015,08,22,08,35,16.90
2015,08,22,08,36,16.90
2015,08,22,08,37,17.10
2015,08,22,08,38,17.10
2015,08,22,08,39,17.10
2015,08,22,08,40,17.10
2015,08,22,08,41,17.10
2015,08,22,08,42,17.10
2015,08,22,08,43,17.10
2015,08,22,08,44,17.20
2015,08,22,08,45,17.20
2015,08,22,08,46,17.20
2015,08,22,08,47,17.20
2015,08,22,08,48,17.20
2015,08,22,08,49,17.20
2015,08,22,08,50,17.20
2015,08,22,08,51,17.20
2015,08,22,08,52,17.20
2015,08,22,08,53,17.20
2015,08,22,08,54,17.20
2015,08,22,08,55,17.30
2015,08,22,08,56,17.30
2015,08,22,08,57,17.30
2015,08,22,08,58,17.30
2015,08,22,08,59,17.30
2015,08,22,09,00,17.30
2015,08,22,09,01,17.30
2015,08,22,09,02,17.30
2015,08,22,09,03,17.30
2015,08,22,09,04,17.30
2015,08,22,09,05,17.30
2015,08,22,09,06,17.30
2015,08,22,09,07,17.30
2015,08,22,09,08,17.30
2015,08,22,09,09,17.30
2015,08,22,09,10,17.30
2015,08,22,09,11,17.40
2015,08,22,09,12,17.40
2015,08,22,09,13,17.50
2015,08,22,09,14,17.50
2015,08,22,09,15,17.60
2015,08,22,09,16,17.70
2015,08,22,09,17,17.70
2015,08,22,09,18,17.70
2015,08,22,09,19,17.80
2015,08,22,09,20,17.80
2015,08,22,09,21,17.80
2015,08,22,09,22,17.80
2015,08,22,09,23,17.80
2015,08,22,09,24,17.90
2015,08,22,09,25,17.90
2015,08,22,09,26,18.00
2015,08,22,09,27,18.10
2015,08,22,09,28,18.10
2015,08,22,09,29,18.20
2015,08,22,09,30,18.20
2015,08,22,09,31,18.30
2015,08,22,09,32,18.30
2015,08,22,09,33,18.30
2015,08,22,09,34,18.40
2015,08,22,09,35,18.40
2015,08,22,09,36,18.50
2015,08,22,09,37,18.50
2015,08,22,09,38,18.60
2015,08,22,09,39,18.70
2015,08,22,09,40,18.80
2015,08,22,09,41,18.80
2015,08,22,09,42,18.80
2015,08,22,09,43,18.90
2015,08,22,09,44,18.90
2015,08,22,09,45,19.00
2015,08,22,09,46,19.00
2015,08,22,09,47,19.00
2015,08,22,09,48,18.90
2015,08,22,09,49,18.80
2015,08,22,09,50,18.80
2015,08,22,09,51,18.70
2015,08,22,09,52,18.70
2015,08,22,09,53,18.60
2015,08,22,09,54,18.60
2015,08,22,09,55,18.60
2015,08,22,09,56,18.60
2015,08,22,09,57,18.70
2015,08,22,09,58,18.70
2015,08,22,09,59,18.70
2015,08,22,10,00,18.70
2015,08,22,10,01,18.80
2015,08,22,10,02,18.80
2015,08,22,10,03,18.80
2015,08,22,10,04,18.80
2015,08,22,10,05,18.80
2015,08,22,10,06,18.80
2015,08,22,10,07,18.90
2015,08,22,10,08,18.80
2015,08,22,10,09,18.80
2015,08,22,10,10,18.80
2015,08,22,10,11,18.90
2015,08,22,10,12,19.00
2015,08,22,10,13,19.00
2015,08,22,10,14,19.20
2015,08,22,10,15,19.20
2015,08,22,10,16,19.20
2015,08,22,10,17,19.20
2015,08,22,10,18,19.20
2015,08,22,10,19,19.20
2015,08,22,10,20,19.20
2015,08,22,10,21,19.20
2015,08,22,10,22,19.20
2015,08,22,10,23,19.20
2015,08,22,10,24,19.20
2015,08,22,10,25,19.20
2015,08,22,10,26,19.10
2015,08,22,10,27,19.10
2015,08,22,10,28,19.10
2015,08,22,10,29,19.20
2015,08,22,10,30,19.20
2015,08,22,10,31,19.30
2015,08,22,10,32,19.30
2015,08,22,10,33,19.40
2015,08,22,10,34,19.50
2015,08,22,10,35,19.50
2015,08,22,10,36,19.60
2015,08,22,10,37,19.70
2015,08,22,10,38,19.70
2015,08,22,10,39,19.80
2015,08,22,10,40,19.80
2015,08,22,10,41,19.80
2015,08,22,10,42,19.70
2015,08,22,10,43,19.70
2015,08,22,10,44,19.80
2015,08,22,10,45,19.80
2015,08,22,10,46,19.80
2015,08,22,10,47,19.80
2015,08,22,10,48,19.90
2015,08,22,10,49,19.90
2015,08,22,10,50,19.90
2015,08,22,10,51,19.90
2015,08,22,10,52,19.80
2015,08,22,10,53,19.80
2015,08,22,10,54,19.80
2015,08,22,10,55,19.70
2015,08,22,10,56,19.70
2015,08,22,10,57,19.80
2015,08,22,10,58,19.80
2015,08,22,10,59,19.80
2015,08,22,11,00,19.80
2015,08,22,11,01,19.80
2015,08,22,11,02,19.80
2015,08,22,11,03,19.90
2015,08,22,11,04,20.00
2015,08,22,11,05,20.00
2015,08,22,11,06,20.10
2015,08,22,11,07,20.10
2015,08,22,11,08,20.20
2015,08,22,11,09,20.20
2015,08,22,11,10,20.20
2015,08,22,11,11,20.20
2015,08,22,11,12,20.20
2015,08,22,11,13,20.20
2015,08,22,11,14,20.30
2015,08,22,11,15,20.30
2015,08,22,11,16,20.40
2015,08,22,11,17,20.40
2015,08,22,11,18,20.40
2015,08,22,11,19,20.40
2015,08,22,11,20,20.50
2015,08,22,11,21,20.60
2015,08,22,11,22,20.70
2015,08,22,11,23,20.70
2015,08,22,11,24,20.80
2015,08,22,11,25,20.90
2015,08,22,11,26,20.90
2015,08,22,11,27,20.90
2015,08,22,11,28,20.80
2015,08,22,11,29,20.80
2015,08,22,11,30,20.80
2015,08,22,11,31,20.80
2015,08,22,11,32,20.80
2015,08,22,11,33,20.80
2015,08,22,11,34,20.80
2015,08,22,11,35,20.90
2015,08,22,11,36,20.90
2015,08,22,11,37,21.00
2015,08,22,11,38,21.10
2015,08,22,11,39,21.20
2015,08,22,11,40,21.20
2015,08,22,11,41,21.30
2015,08,22,11,42,21.30
2015,08,22,11,43,21.30
2015,08,22,11,44,21.30
2015,08,22,11,45,21.40
2015,08,22,11,46,21.50
2015,08,22,11,47,21.50
2015,08,22,11,48,21.40
2015,08,22,11,49,21.40
2015,08,22,11,50,21.30
2015,08,22,11,51,21.30
2015,08,22,11,52,21.20
2015,08,22,11,53,21.20
2015,08,22,11,54,21.20
2015,08,22,11,55,21.20
2015,08,22,11,56,21.20
2015,08,22,11,57,21.30
2015,08,22,11,58,21.30
2015,08,22,11,59,21.40
2015,08,22,12,00,21.50
2015,08,22,12,01,21.60
2015,08,22,12,02,21.70
2015,08,22,12,03,21.70
2015,08,22,12,04,21.60
2015,08,22,12,05,21.50
2015,08,22,12,06,21.40
2015,08,22,12,07,21.20
2015,08,22,12,08,21.10
2015,08,22,12,09,21.00
2015,08,22,12,10,20.90
2015,08,22,12,11,20.90
2015,08,22,12,12,20.80
2015,08,22,12,13,20.80
2015,08,22,12,14,20.80
2015,08,22,12,15,20.80
2015,08,22,12,16,20.80
2015,08,22,12,17,20.90
2015,08,22,12,18,20.90
2015,08,22,12,19,21.00
2015,08,22,12,20,21.00
2015,08,22,12,21,21.00
2015,08,22,12,22,21.00
2015,08,22,12,23,20.90
2015,08,22,12,24,20.90
2015,08,22,12,25,20.90
2015,08,22,12,26,20.90
2015,08,22,12,27,20.90
2015,08,22,12,28,20.90
2015,08,22,12,29,21.00
2015,08,22,12,30,21.00
2015,08,22,12,31,21.00
2015,08,22,12,32,20.90
2015,08,22,12,33,20.90
2015,08,22,12,34,21.00
2015,08,22,12,35,21.10
2015,08,22,12,36,21.10
2015,08,22,12,37,21.20
2015,08,22,12,38,21.20
2015,08,22,12,39,21.30
2015,08,22,12,40,21.30
2015,08,22,12,41,21.40
2015,08,22,12,42,21.50
2015,08,22,12,43,21.60
2015,08,22,12,44,21.60
2015,08,22,12,45,21.70
2015,08,22,12,46,21.70
2015,08,22,12,47,21.70
2015,08,22,12,48,21.80
2015,08,22,12,49,21.90
2015,08,22,12,50,22.00
2015,08,22,12,51,22.20
2015,08,22,12,52,22.30
2015,08,22,12,53,22.30
2015,08,22,12,54,22.30
2015,08,22,12,55,22.20
2015,08,22,12,56,22.20
2015,08,22,12,57,22.20
2015,08,22,12,58,22.20
2015,08,22,12,59,22.20
2015,08,22,13,00,22.30
2015,08,22,13,01,22.40
2015,08,22,13,02,22.40
2015,08,22,13,03,22.40
2015,08,22,13,04,22.40
2015,08,22,13,05,22.40
2015,08,22,13,06,22.50
2015,08,22,13,07,22.60
2015,08,22,13,08,22.70
2015,08,22,13,09,22.80
2015,08,22,13,10,22.90
2015,08,22,13,11,22.90
2015,08,22,13,12,22.90
2015,08,22,13,13,22.80
2015,08,22,13,14,22.80
2015,08,22,13,15,22.70
2015,08,22,13,16,22.70
2015,08,22,13,17,22.90
2015,08,22,13,18,23.00
2015,08,22,13,19,23.00
2015,08,22,13,20,23.10
2015,08,22,13,21,23.10
2015,08,22,13,22,23.10
2015,08,22,13,23,23.10
2015,08,22,13,24,23.10
2015,08,22,13,25,23.00
2015,08,22,13,26,22.90
2015,08,22,13,27,22.90
2015,08,22,13,28,23.00
2015,08,22,13,29,23.10
2015,08,22,13,30,23.10
2015,08,22,13,31,23.10
2015,08,22,13,32,23.20
2015,08,22,13,33,23.30
2015,08,22,13,34,23.30
2015,08,22,13,35,23.40
2015,08,22,13,36,23.40
2015,08,22,13,37,23.40
2015,08,22,13,38,23.50
2015,08,22,13,39,23.50
2015,08,22,13,40,23.40
2015,08,22,13,41,23.40
2015,08,22,13,42,23.50
2015,08,22,13,43,23.50
2015,08,22,13,44,23.50
2015,08,22,13,45,23.60
2015,08,22,13,46,23.60
2015,08,22,13,47,23.60
2015,08,22,13,48,23.60
2015,08,22,13,49,23.60
2015,08,22,13,50,23.60
2015,08,22,13,51,23.70
2015,08,22,13,52,23.70
2015,08,22,13,53,23.60
2015,08,22,13,54,23.50
2015,08,22,13,55,23.40
2015,08,22,13,56,23.40
2015,08,22,13,57,23.40
2015,08,22,13,58,23.30
2015,08,22,13,59,23.30
2015,08,22,14,00,23.40
2015,08,22,14,01,23.40
2015,08,22,14,02,23.30
2015,08,22,14,03,23.30
2015,08,22,14,04,23.30
2015,08,22,14,05,23.20
2015,08,22,14,06,23.20
2015,08,22,14,07,23.20
2015,08,22,14,08,23.20
2015,08,22,14,09,23.40
2015,08,22,14,10,23.40
2015,08,22,14,11,23.40
2015,08,22,14,12,23.40
2015,08,22,14,13,23.30
2015,08,22,14,14,23.30
2015,08,22,14,15,23.30
2015,08,22,14,16,23.30
2015,08,22,14,17,23.30
2015,08,22,14,18,23.30
2015,08,22,14,19,23.30
2015,08,22,14,20,23.30
2015,08,22,14,21,23.30
2015,08,22,14,22,23.30
2015,08,22,14,23,23.30
2015,08,22,14,24,23.30
2015,08,22,14,25,23.30
2015,08,22,14,26,23.40
2015,08,22,14,27,23.40
2015,08,22,14,28,23.40
2015,08,22,14,29,23.40
2015,08,22,14,30,23.30
2015,08,22,14,31,23.30
2015,08,22,14,32,23.30
2015,08,22,14,33,23.30
2015,08,22,14,34,23.30
2015,08,22,14,35,23.40
2015,08,22,14,36,23.40
2015,08,22,14,37,23.40
2015,08,22,14,38,23.40
2015,08,22,14,39,23.30
2015,08,22,14,40,23.30
2015,08,22,14,41,23.30
2015,08,22,14,42,23.30
2015,08,22,14,43,23.30
2015,08,22,14,44,23.30
2015,08,22,14,45,23.40
2015,08,22,14,46,23.40
2015,08,22,14,47,23.40
2015,08,22,14,48,23.40
2015,08,22,14,49,23.40
2015,08,22,14,50,23.40
2015,08,22,14,51,23.40
2015,08,22,14,52,23.40
2015,08,22,14,53,23.40
2015,08,22,14,54,23.40
2015,08,22,14,55,23.40
2015,08,22,14,56,23.20
2015,08,22,14,57,22.90
2015,08,22,14,58,22.70
2015,08,22,14,59,22.50
2015,08,22,15,00,22.40
2015,08,22,15,01,22.30
2015,08,22,15,02,22.20
2015,08,22,15,03,22.00
2015,08,22,15,04,21.90
2015,08,22,15,05,21.80
2015,08,22,15,06,21.70
2015,08,22,15,07,21.70
2015,08,22,15,08,21.60
2015,08,22,15,09,21.60
2015,08,22,15,10,21.50
2015,08,22,15,11,21.50
2015,08,22,15,12,21.40
2015,08,22,15,13,21.40
2015,08,22,15,14,21.30
2015,08,22,15,15,21.20
2015,08,22,15,16,21.20
2015,08,22,15,17,21.20
2015,08,22,15,18,21.20
2015,08,22,15,19,21.20
2015,08,22,15,20,21.20
2015,08,22,15,21,21.20
2015,08,22,15,22,21.10
2015,08,22,15,23,21.00
2015,08,22,15,24,20.90
2015,08,22,15,25,20.90
2015,08,22,15,26,20.90
2015,08,22,15,27,21.00
2015,08,22,15,28,21.00
2015,08,22,15,29,21.10
2015,08,22,15,30,21.20
2015,08,22,15,31,21.30
2015,08,22,15,32,21.30
2015,08,22,15,33,21.40
2015,08,22,15,34,21.40
2015,08,22,15,35,21.30
2015,08,22,15,36,21.30
2015,08,22,15,37,21.30
2015,08,22,15,38,21.30
2015,08,22,15,39,21.40
2015,08,22,15,40,21.40
2015,08,22,15,41,21.50
2015,08,22,15,42,21.50
2015,08,22,15,43,21.60
2015,08,22,15,44,21.60
2015,08,22,15,45,21.70
2015,08,22,15,46,21.70
2015,08,22,15,47,21.70
2015,08,22,15,48,21.80
2015,08,22,15,49,21.80
2015,08,22,15,50,21.80
2015,08,22,15,51,21.80
2015,08,22,15,52,21.80
2015,08,22,15,53,21.90
2015,08,22,15,54,21.90
2015,08,22,15,55,21.90
2015,08,22,15,56,21.90
2015,08,22,15,57,21.90
2015,08,22,15,58,21.90
2015,08,22,15,59,21.80
2015,08,22,16,00,21.50
2015,08,22,16,01,21.40
2015,08,22,16,02,21.20
2015,08,22,16,03,21.10
2015,08,22,16,04,21.10
2015,08,22,16,05,21.10
2015,08,22,16,06,21.10
2015,08,22,16,07,21.10
2015,08,22,16,08,21.10
2015,08,22,16,09,21.00
2015,08,22,16,10,21.00
2015,08,22,16,11,20.90
2015,08,22,16,12,20.80
2015,08,22,16,13,20.70
2015,08,22,16,14,20.70
2015,08,22,16,15,20.60
2015,08,22,16,16,20.60
2015,08,22,16,17,20.50
2015,08,22,16,18,20.50
2015,08,22,16,19,20.60
2015,08,22,16,20,20.50
2015,08,22,16,21,20.40
2015,08,22,16,22,20.40
2015,08,22,16,23,20.30
2015,08,22,16,24,20.30
2015,08,22,16,25,20.30
2015,08,22,16,26,20.40
2015,08,22,16,27,20.40
2015,08,22,16,28,20.40
2015,08,22,16,29,20.40
2015,08,22,16,30,20.40
2015,08,22,16,31,20.30
2015,08,22,16,32,20.30
2015,08,22,16,33,20.20
2015,08,22,16,34,20.20
2015,08,22,16,35,20.10
2015,08,22,16,36,20.00
2015,08,22,16,37,20.00
2015,08,22,16,38,20.00
2015,08,22,16,39,19.90
2015,08,22,16,40,19.80
2015,08,22,16,41,19.80
2015,08,22,16,42,19.80
2015,08,22,16,43,19.90
2015,08,22,16,44,19.90
2015,08,22,16,45,20.00
2015,08,22,16,46,20.10
2015,08,22,16,47,20.10
2015,08,22,16,48,20.20
2015,08,22,16,49,20.30
2015,08,22,16,50,20.30
2015,08,22,16,51,20.40
2015,08,22,16,52,20.40
2015,08,22,16,53,20.40
2015,08,22,16,54,20.50
2015,08,22,16,55,20.50
2015,08,22,16,56,20.60
2015,08,22,16,57,20.70
2015,08,22,16,58,20.80
2015,08,22,16,59,20.80
2015,08,22,17,00,20.80
2015,08,22,17,01,20.80
2015,08,22,17,02,20.80
2015,08,22,17,03,20.80
2015,08,22,17,04,20.80
2015,08,22,17,05,20.80
2015,08,22,17,06,20.80
2015,08,22,17,07,20.80
2015,08,22,17,08,20.80
2015,08,22,17,09,20.80
2015,08,22,17,10,20.70
2015,08,22,17,11,20.70
2015,08,22,17,12,20.60
2015,08,22,17,13,20.60
2015,08,22,17,14,20.60
2015,08,22,17,15,20.50
2015,08,22,17,16,20.50
2015,08,22,17,17,20.50
2015,08,22,17,18,20.50
2015,08,22,17,19,20.60